Total_Precipitation_Accumulation
0.28 0.38 0.41 0.38 0.31 0.27 0.30 0.33 0.44 0.48 0.64 0.83 0.86 0.89 0.79 0.73 0.73 0.76 0.72 0.69 0.75 0.70 0.65 0.65 0.67 0.69 0.75 0.79 0.91 1.05 1.14 1.18 1.26 1.31 1.29 1.28 1.24 1.19 1.26 1.31 1.28 1.38 1.43 1.40
0.31 0.39 0.42 0.41 0.37 0.30 0.27 0.27 0.32 0.40 0.58 0.68 0.75 0.78 0.79 0.73 0.72 0.72 0.65 0.63 0.57 0.47 0.43 0.47 0.54 0.59 0.64 0.67 0.75 0.89 0.91 0.99 1.20 1.34 1.35 1.31 1.21 1.22 1.28 1.29 1.33 1.40 1.44 1.39
0.38 0.47 0.56 0.59 0.38 0.34 0.34 0.31 0.42 0.65 0.75 0.77 0.90 0.90 0.80 0.70 0.64 0.56 0.50 0.47 0.44 0.38 0.38 0.44 0.52 0.58 0.64 0.71 0.75 0.81 0.84 0.90 0.99 1.12 1.18 1.13 1.08 1.09 1.14 1.20 1.31 1.36 1.40 1.48
0.51 0.68 0.84 0.68 0.40 0.33 0.37 0.37 0.38 0.51 0.60 0.67 0.88 0.93 0.71 0.56 0.53 0.47 0.45 0.43 0.43 0.45 0.47 0.58 0.59 0.64 0.77 0.89 0.91 0.90 0.97 0.99 0.98 1.03 1.12 1.15 1.11 1.11 1.20 1.26 1.30 1.34 1.36 1.43
0.64 0.79 0.81 0.68 0.55 0.46 0.50 0.58 0.42 0.47 0.54 0.60 0.61 0.69 0.73 0.53 0.55 0.57 0.50 0.49 0.49 0.50 0.57 0.71 0.71 0.75 0.88 0.92 0.97 1.00 1.02 1.05 1.06 1.08 1.15 1.20 1.20 1.28 1.39 1.47 1.37 1.34 1.41 1.49
0.66 0.83 0.99 0.81 0.63 0.52 0.60 1.01 0.68 0.52 0.47 0.54 0.58 0.86 0.93 0.64 0.52 0.51 0.51 0.56 0.62 0.60 0.66 0.74 0.81 0.96 1.06 1.08 1.15 1.20 1.14 1.11 1.15 1.24 1.30 1.35 1.48 1.68 1.76 1.76 1.67 1.62 1.53 1.54
0.80 0.87 0.90 0.77 0.60 0.56 1.01 1.26 0.75 0.59 0.51 0.55 0.60 0.73 0.80 0.66 0.56 0.53 0.58 0.68 0.78 0.89 0.95 0.99 0.91 1.01 1.16 1.30 1.37 1.38 1.47 1.46 1.42 1.51 1.60 1.68 1.90 2.04 2.07 2.05 2.14 2.11 1.94 1.86
1.03 1.19 1.23 0.88 0.84 1.01 1.19 1.06 0.85 0.71 0.67 0.61 0.59 0.60 0.65 0.64 0.64 0.61 0.65 0.79 0.86 0.94 0.99 1.06 1.14 1.23 1.27 1.32 1.41 1.51 1.56 1.63 1.70 1.84 1.78 1.85 2.12 2.19 2.29 2.42 2.42 2.33 2.33 2.23
1.19 1.27 1.14 1.01 1.14 1.18 1.07 1.12 1.04 0.85 0.80 0.74 0.71 0.65 0.61 0.62 0.66 0.70 0.71 0.74 0.83 0.90 1.00 1.13 1.22 1.32 1.46 1.51 1.53 1.63 1.74 1.82 1.95 2.11 2.23 2.29 2.44 2.55 2.54 2.53 2.53 2.49 2.49 2.44
1.36 1.43 1.31 1.32 1.29 1.25 1.22 1.18 1.03 0.86 0.85 0.78 0.72 0.65 0.65 0.69 0.70 0.71 0.72 0.68 0.71 0.83 1.00 1.14 1.26 1.44 1.66 1.67 1.59 1.69 1.85 1.89 2.03 2.18 2.26 2.35 2.52 2.58 2.61 2.60 2.60 2.66 2.64 2.50
1.76 1.73 1.71 1.69 1.53 1.33 1.20 1.07 0.98 0.87 0.85 0.79 0.73 0.70 0.67 0.70 0.72 0.67 0.63 0.64 0.70 0.79 0.95 1.07 1.08 1.26 1.51 1.67 1.74 1.87 1.95 2.02 2.16 2.31 2.43 2.51 2.43 2.47 2.55 2.58 2.51 2.41 2.40 2.36
1.95 1.78 1.72 1.76 1.55 1.30 1.24 1.24 1.16 1.12 1.11 1.00 0.90 0.88 0.78 0.69 0.67 0.64 0.62 0.65 0.75 0.79 0.85 0.95 1.01 1.18 1.34 1.57 1.75 2.01 2.06 2.11 2.20 2.28 2.42 2.43 2.42 2.31 2.22 2.13 2.09 1.96 1.97 2.00
1.69 1.63 1.52 1.56 1.50 1.35 1.32 1.33 1.30 1.29 1.30 1.19 1.06 0.95 0.86 0.77 0.72 0.71 0.71 0.70 0.80 0.89 0.91 0.96 1.05 1.21 1.34 1.52 1.77 2.02 2.11 2.13 2.16 2.16 2.25 2.35 2.36 2.29 2.16 2.04 1.92 1.79 1.73 1.66
1.79 1.73 1.65 1.48 1.50 1.45 1.42 1.35 1.33 1.38 1.36 1.27 1.22 1.08 1.03 0.91 0.83 0.84 0.88 0.88 0.89 0.98 1.01 1.06 1.17 1.36 1.50 1.67 1.89 2.05 2.04 2.09 2.03 2.02 2.10 2.23 2.25 2.26 2.25 2.16 2.07 1.96 1.84 1.73
1.77 1.84 1.66 1.43 1.32 1.41 1.45 1.46 1.43 1.36 1.32 1.36 1.28 1.22 1.22 1.13 1.03 0.97 1.02 1.03 1.01 1.07 1.10 1.14 1.30 1.46 1.52 1.66 1.91 2.02 2.00 2.00 2.01 2.04 2.08 2.15 2.20 2.25 2.25 2.16 2.11 2.00 1.80 1.64
1.66 1.68 1.61 1.47 1.35 1.40 1.51 1.60 1.50 1.35 1.32 1.37 1.36 1.22 1.18 1.24 1.20 1.03 1.02 1.11 1.16 1.20 1.15 1.15 1.24 1.35 1.45 1.62 1.77 1.79 1.83 1.97 2.03 1.97 1.96 2.02 2.13 2.22 2.22 2.19 2.18 2.13 1.98 1.69
1.79 1.74 1.64 1.54 1.50 1.48 1.51 1.57 1.61 1.52 1.41 1.33 1.35 1.22 1.10 1.09 1.09 1.08 1.05 1.03 1.07 1.13 1.14 1.14 1.18 1.24 1.33 1.52 1.75 1.80 1.77 1.77 1.87 1.86 1.84 1.87 1.93 1.97 2.02 1.99 1.91 1.88 1.83 1.67
1.64 1.63 1.55 1.45 1.48 1.56 1.60 1.60 1.58 1.61 1.55 1.29 1.14 1.18 1.10 1.02 1.05 1.08 1.08 1.03 1.02 1.05 1.05 1.07 1.19 1.26 1.27 1.42 1.68 1.79 1.87 1.83 1.72 1.70 1.72 1.78 1.80 1.79 1.80 1.76 1.68 1.64 1.59 1.49
1.46 1.54 1.46 1.35 1.40 1.44 1.56 1.68 1.55 1.46 1.42 1.26 1.15 1.08 1.02 1.03 1.03 0.99 0.95 0.99 1.06 1.12 1.07 1.03 1.22 1.24 1.27 1.43 1.67 1.72 1.80 1.76 1.64 1.54 1.47 1.55 1.56 1.57 1.57 1.53 1.50 1.48 1.44 1.33
1.56 1.60 1.49 1.43 1.48 1.49 1.51 1.56 1.49 1.43 1.38 1.26 1.16 1.11 1.01 1.01 1.01 0.98 0.96 0.97 0.98 1.04 1.01 1.00 1.03 1.07 1.18 1.37 1.60 1.58 1.64 1.62 1.54 1.42 1.29 1.26 1.34 1.45 1.47 1.45 1.44 1.36 1.24 1.16
1.80 1.76 1.69 1.65 1.60 1.51 1.43 1.40 1.34 1.32 1.30 1.25 1.18 1.11 0.99 0.99 1.00 1.03 1.05 1.01 0.88 0.86 0.86 0.90 0.90 0.94 0.98 1.15 1.27 1.30 1.39 1.39 1.40 1.37 1.23 1.13 1.22 1.31 1.31 1.26 1.22 1.14 1.03 1.01
1.93 1.84 1.72 1.56 1.42 1.34 1.23 1.14 1.07 1.04 1.12 1.19 1.20 1.11 1.05 1.07 1.05 1.01 0.96 0.94 0.92 1.00 0.93 0.84 0.84 0.87 0.88 0.92 0.95 1.09 1.15 1.17 1.20 1.21 1.13 1.05 1.09 1.16 1.15 1.09 1.07 0.98 0.87 0.85
1.84 1.72 1.53 1.36 1.26 1.17 1.04 1.00 0.98 0.95 1.01 1.06 1.11 1.19 1.27 1.25 1.16 1.12 0.98 0.79 0.82 0.93 0.88 0.84 0.91 0.94 0.87 0.75 0.79 0.95 1.08 1.10 1.05 1.03 1.02 1.02 1.04 1.02 0.97 0.92 0.88 0.81 0.74 0.72
1.59 1.44 1.29 1.13 1.04 1.01 0.97 0.96 0.90 0.88 0.88 0.90 0.89 0.97 1.18 1.28 1.20 1.03 0.93 0.87 0.87 0.85 0.74 0.75 0.79 0.82 0.81 0.72 0.74 0.84 0.93 0.99 0.94 0.92 0.90 0.92 0.96 0.96 0.90 0.85 0.78 0.71 0.65 0.64
1.23 1.10 0.99 0.98 1.02 1.03 0.94 0.86 0.80 0.80 0.80 0.83 0.82 0.82 0.97 1.18 1.29 1.15 0.98 0.86 0.85 0.80 0.75 0.72 0.69 0.72 0.68 0.65 0.64 0.71 0.80 0.89 0.92 0.88 0.82 0.79 0.83 0.84 0.81 0.79 0.75 0.72 0.67 0.63
1.06 1.03 1.01 1.02 1.03 1.02 0.93 0.90 0.89 0.85 0.88 0.94 0.92 0.88 0.95 1.05 1.08 1.03 0.95 0.85 0.77 0.78 0.76 0.68 0.60 0.57 0.51 0.53 0.54 0.59 0.71 0.81 0.88 0.85 0.82 0.84 0.83 0.82 0.83 0.85 0.82 0.78 0.68 0.57
1.06 1.03 1.05 1.06 1.04 0.95 0.93 0.98 0.99 0.97 0.99 1.05 1.11 1.03 1.03 1.07 1.05 0.98 0.93 0.88 0.80 0.74 0.72 0.64 0.59 0.55 0.51 0.52 0.53 0.55 0.61 0.68 0.73 0.76 0.78 0.82 0.82 0.80 0.82 0.84 0.81 0.77 0.70 0.62